"Time","Value","Approval","myLocation"
"2023-04-20 00:00",4.51503225971794,"Approved","OW417"
"2023-04-20 01:00",4.51503628467599,"Approved","OW417"
"2023-04-20 02:00",4.51504030963403,"Approved","OW417"
"2023-04-20 03:00",4.51604433459208,"Approved","OW417"
"2023-04-20 04:00",4.51704835955012,"Approved","OW417"
"2023-04-20 05:00",4.51805238450817,"Approved","OW417"
"2023-04-20 06:00",4.51905640946621,"Approved","OW417"
"2023-04-20 07:00",4.52006043442426,"Approved","OW417"
"2023-04-20 08:00",4.5210644593823,"Approved","OW417"
"2023-04-20 09:00",4.52206848434035,"Approved","OW417"
"2023-04-20 10:00",4.52207250929839,"Approved","OW417"
"2023-04-20 11:00",4.52207653425644,"Approved","OW417"
"2023-04-20 12:00",4.52208055921448,"Approved","OW417"
"2023-04-20 13:00",4.52308458417253,"Approved","OW417"
"2023-04-20 14:00",4.52308860913057,"Approved","OW417"
"2023-04-20 15:00",4.52309263408862,"Approved","OW417"
"2023-04-20 16:00",4.52409665904666,"Approved","OW417"
"2023-04-20 17:00",4.52510068400471,"Approved","OW417"
"2023-04-20 18:00",4.52710470896275,"Approved","OW417"
"2023-04-20 19:00",4.5271087339208,"Approved","OW417"
"2023-04-20 20:00",4.52711275887884,"Approved","OW417"
"2023-04-20 21:00",4.52611678383689,"Approved","OW417"
"2023-04-20 22:00",4.52512080879493,"Approved","OW417"
"2023-04-20 23:00",4.52412483375298,"Approved","OW417"
"2023-04-21 00:00",4.52212885871102,"Approved","OW417"
"2023-04-21 01:00",4.52113288366907,"Approved","OW417"
"2023-04-21 02:00",4.52013690862711,"Approved","OW417"
"2023-04-21 03:00",4.52014093358516,"Approved","OW417"
"2023-04-21 04:00",4.52114495854321,"Approved","OW417"
"2023-04-21 05:00",4.52114898350125,"Approved","OW417"
"2023-04-21 06:00",4.5211530084593,"Approved","OW417"
"2023-04-21 07:00",4.52215703341734,"Approved","OW417"
"2023-04-21 08:00",4.52316105837539,"Approved","OW417"
"2023-04-21 09:00",4.52416508333343,"Approved","OW417"
"2023-04-21 10:00",4.52416910829148,"Approved","OW417"
"2023-04-21 11:00",4.52417313324952,"Approved","OW417"
"2023-04-21 12:00",4.52517715820757,"Approved","OW417"
"2023-04-21 13:00",4.52518118316561,"Approved","OW417"
"2023-04-21 14:00",4.52618520812366,"Approved","OW417"
"2023-04-21 15:00",4.5271892330817,"Approved","OW417"
"2023-04-21 16:00",4.52819325803975,"Approved","OW417"
"2023-04-21 17:00",4.52819728299779,"Approved","OW417"
"2023-04-21 18:00",4.52920130795584,"Approved","OW417"
"2023-04-21 19:00",4.52920533291388,"Approved","OW417"
"2023-04-21 20:00",4.52920935787193,"Approved","OW417"
"2023-04-21 21:00",4.52921338282997,"Approved","OW417"
"2023-04-21 22:00",4.52821740778802,"Approved","OW417"
"2023-04-21 23:00",4.52722143274606,"Approved","OW417"
"2023-04-22 00:00",4.52622545770411,"Approved","OW417"
"2023-04-22 01:00",4.52522948266215,"Approved","OW417"
"2023-04-22 02:00",4.5232335076202,"Approved","OW417"
"2023-04-22 03:00",4.52223753257824,"Approved","OW417"
"2023-04-22 04:00",4.52224155753629,"Approved","OW417"
"2023-04-22 05:00",4.52124558249433,"Approved","OW417"
"2023-04-22 06:00",4.52224960745238,"Approved","OW417"
"2023-04-22 07:00",4.52225363241042,"Approved","OW417"
"2023-04-22 08:00",4.52125765736847,"Approved","OW417"
"2023-04-22 09:00",4.52126168232651,"Approved","OW417"
"2023-04-22 10:00",4.52126570728456,"Approved","OW417"
"2023-04-22 11:00",4.5202697322426,"Approved","OW417"
"2023-04-22 12:00",4.52027375720065,"Approved","OW417"
"2023-04-22 13:00",4.52027778215869,"Approved","OW417"
"2023-04-22 14:00",4.52028180711674,"Approved","OW417"
"2023-04-22 15:00",4.51928583207479,"Approved","OW417"
"2023-04-22 16:00",4.51928985703283,"Approved","OW417"
"2023-04-22 17:00",4.51929388199088,"Approved","OW417"
"2023-04-22 18:00",4.51929790694892,"Approved","OW417"
"2023-04-22 19:00",4.51930193190697,"Approved","OW417"
"2023-04-22 20:00",4.51930595686501,"Approved","OW417"
"2023-04-22 21:00",4.51930998182306,"Approved","OW417"
"2023-04-22 22:00",4.5183140067811,"Approved","OW417"
"2023-04-22 23:00",4.51731803173915,"Approved","OW417"
"2023-04-23 00:00",4.51632205669719,"Approved","OW417"
"2023-04-23 01:00",4.51432608165524,"Approved","OW417"
"2023-04-23 02:00",4.51333010661328,"Approved","OW417"
"2023-04-23 03:00",4.51233413157133,"Approved","OW417"
"2023-04-23 04:00",4.51133815652937,"Approved","OW417"
"2023-04-23 05:00",4.51034218148742,"Approved","OW417"
"2023-04-23 06:00",4.51034620644546,"Approved","OW417"
"2023-04-23 07:00",4.50935023140351,"Approved","OW417"
"2023-04-23 08:00",4.50835425636155,"Approved","OW417"
"2023-04-23 09:00",4.5083582813196,"Approved","OW417"
"2023-04-23 10:00",4.50736230627764,"Approved","OW417"
"2023-04-23 11:00",4.50736633123569,"Approved","OW417"
"2023-04-23 12:00",4.50637035619373,"Approved","OW417"
"2023-04-23 13:00",4.50637438115178,"Approved","OW417"
"2023-04-23 14:00",4.50637840610982,"Approved","OW417"
"2023-04-24 06:00",4.50044280543854,"Approved","OW417"
"2023-04-24 07:00",4.50044683039659,"Approved","OW417"
"2023-04-24 08:00",4.50045085535463,"Approved","OW417"
"2023-04-24 09:00",4.50045488031268,"Approved","OW417"
"2023-04-24 10:00",4.50045890527073,"Approved","OW417"
"2023-04-24 11:00",4.50146293022877,"Approved","OW417"
"2023-04-24 12:00",4.50146695518681,"Approved","OW417"
"2023-04-24 13:00",4.50147098014486,"Approved","OW417"
"2023-04-24 14:00",4.50247500510291,"Approved","OW417"
"2023-04-24 15:00",4.50247903006095,"Approved","OW417"
"2023-04-24 16:00",4.503483055019,"Approved","OW417"
"2023-04-24 17:00",4.50348707997704,"Approved","OW417"
"2023-04-24 18:00",4.50449110493509,"Approved","OW417"
"2023-04-24 19:00",4.50549512989313,"Approved","OW417"
"2023-04-24 20:00",4.50649915485118,"Approved","OW417"
"2023-04-24 21:00",4.50650317980922,"Approved","OW417"
"2023-04-24 22:00",4.50650720476727,"Approved","OW417"
"2023-04-24 23:00",4.50651122972531,"Approved","OW417"
"2023-04-25 00:00",4.50551525468336,"Approved","OW417"
"2023-04-25 01:00",4.5045192796414,"Approved","OW417"
"2023-04-25 02:00",4.50352330459945,"Approved","OW417"
"2023-04-25 03:00",4.50352732955749,"Approved","OW417"
"2023-04-25 04:00",4.50253135451554,"Approved","OW417"
"2023-04-25 05:00",4.50153537947358,"Approved","OW417"
"2023-04-25 06:00",4.50053940443163,"Approved","OW417"
"2023-04-25 07:00",4.50054342938967,"Approved","OW417"
"2023-04-25 08:00",4.49954745434772,"Approved","OW417"
"2023-04-25 09:00",4.49955147930576,"Approved","OW417"
"2023-04-25 10:00",4.49855550426381,"Approved","OW417"
"2023-04-25 11:00",4.49955952922185,"Approved","OW417"
"2023-04-25 12:00",4.5005635541799,"Approved","OW417"
"2023-04-25 13:00",4.50056757913794,"Approved","OW417"
"2023-04-25 14:00",4.50057160409599,"Approved","OW417"
"2023-04-26 19:00",4.5006883278793,"Approved","OW417"
"2023-04-26 20:00",4.49969235283734,"Approved","OW417"
"2023-04-26 21:00",4.49969637779539,"Approved","OW417"
"2023-04-26 22:00",4.49970040275343,"Approved","OW417"
"2023-04-26 23:00",4.49970442771148,"Approved","OW417"
"2023-04-27 00:00",4.49970845266952,"Approved","OW417"
"2023-04-27 01:00",4.50171247762757,"Approved","OW417"
"2023-04-27 02:00",4.50171650258561,"Approved","OW417"
"2023-04-27 03:00",4.50272052754366,"Approved","OW417"
"2023-04-27 04:00",4.5027245525017,"Approved","OW417"
"2023-04-27 05:00",4.50372857745975,"Approved","OW417"
"2023-04-27 06:00",4.50373260241779,"Approved","OW417"
"2023-04-27 07:00",4.50373662737584,"Approved","OW417"
"2023-04-27 08:00",4.50474065233388,"Approved","OW417"
"2023-04-27 09:00",4.50474467729193,"Approved","OW417"
"2023-04-27 10:00",4.50574870224998,"Approved","OW417"
"2023-04-27 11:00",4.50575272720802,"Approved","OW417"
"2023-04-27 12:00",4.50675675216606,"Approved","OW417"
"2023-04-27 13:00",4.50776077712411,"Approved","OW417"
"2023-04-27 14:00",4.50776480208216,"Approved","OW417"
"2023-04-27 15:00",4.5077688270402,"Approved","OW417"
"2023-04-27 16:00",4.50777285199825,"Approved","OW417"
"2023-04-27 17:00",4.50777687695629,"Approved","OW417"
"2023-04-27 18:00",4.50778090191434,"Approved","OW417"
"2023-04-27 19:00",4.50678492687238,"Approved","OW417"
"2023-04-27 20:00",4.50778895183043,"Approved","OW417"
"2023-04-27 21:00",4.50779297678847,"Approved","OW417"
"2023-04-27 22:00",4.50879700174652,"Approved","OW417"
"2023-04-27 23:00",4.50880102670456,"Approved","OW417"
"2023-04-28 00:00",4.50880505166261,"Approved","OW417"
"2023-04-28 01:00",4.50980907662065,"Approved","OW417"
"2023-04-28 02:00",4.5098131015787,"Approved","OW417"
"2023-04-28 03:00",4.50981712653674,"Approved","OW417"
"2023-04-28 04:00",4.51082115149479,"Approved","OW417"
"2023-04-28 05:00",4.51082517645283,"Approved","OW417"
"2023-04-28 06:00",4.51082920141088,"Approved","OW417"
"2023-04-28 07:00",4.51083322636892,"Approved","OW417"
"2023-04-28 08:00",4.50983725132697,"Approved","OW417"
"2023-04-28 09:00",4.50984127628501,"Approved","OW417"
"2023-04-28 10:00",4.50984530124306,"Approved","OW417"
"2023-04-28 11:00",4.5098493262011,"Approved","OW417"
"2023-04-28 12:00",4.51085335115915,"Approved","OW417"
"2023-04-28 13:00",4.51185737611719,"Approved","OW417"
"2023-04-28 14:00",4.51186140107524,"Approved","OW417"
"2023-04-28 15:00",4.51186542603328,"Approved","OW417"
"2023-04-28 16:00",4.51286945099133,"Approved","OW417"
"2023-04-28 17:00",4.51287347594937,"Approved","OW417"
"2023-04-28 18:00",4.51187750090742,"Approved","OW417"
"2023-04-28 19:00",4.51188152586546,"Approved","OW417"
"2023-04-28 20:00",4.51188555082351,"Approved","OW417"
"2023-04-28 21:00",4.51288957578155,"Approved","OW417"
"2023-04-28 22:00",4.5118936007396,"Approved","OW417"
"2023-04-28 23:00",4.51189762569765,"Approved","OW417"
"2023-04-29 00:00",4.51290165065569,"Approved","OW417"
"2023-04-29 01:00",4.51290567561373,"Approved","OW417"
"2023-04-29 02:00",4.51290970057178,"Approved","OW417"
"2023-04-29 03:00",4.51291372552982,"Approved","OW417"
"2023-04-29 04:00",4.51391775048787,"Approved","OW417"
"2023-04-29 05:00",4.51392177544592,"Approved","OW417"
"2023-04-29 06:00",4.51492580040396,"Approved","OW417"
"2023-04-29 07:00",4.514929825362,"Approved","OW417"
"2023-04-29 08:00",4.51393385032005,"Approved","OW417"
"2023-04-29 09:00",4.5129378752781,"Approved","OW417"
"2023-04-29 10:00",4.51294190023614,"Approved","OW417"
"2023-04-29 11:00",4.51394592519419,"Approved","OW417"
"2023-04-29 12:00",4.51294995015223,"Approved","OW417"
"2023-04-29 13:00",4.51295397511028,"Approved","OW417"
"2023-04-29 14:00",4.51295800006832,"Approved","OW417"
"2023-04-30 15:00",4.50205862401945,"Approved","OW417"
"2023-04-30 16:00",4.50206264897749,"Approved","OW417"
"2023-04-30 17:00",4.50006667393554,"Approved","OW417"
"2023-04-30 18:00",4.50007069889359,"Approved","OW417"
"2023-04-30 19:00",4.49807472385163,"Approved","OW417"
"2023-04-30 20:00",4.49707874880968,"Approved","OW417"
"2023-04-30 21:00",4.49708277376772,"Approved","OW417"
"2023-04-30 22:00",4.49608679872577,"Approved","OW417"
"2023-04-30 23:00",4.49509082368381,"Approved","OW417"
"2023-05-01 03:00",4.49610692351599,"Approved","OW417"
"2023-05-01 04:00",4.49811094847404,"Approved","OW417"
"2023-05-01 05:00",4.49811497343208,"Approved","OW417"
"2023-05-01 06:00",4.49811899839013,"Approved","OW417"
"2023-05-01 07:00",4.49712302334817,"Approved","OW417"
"2023-05-01 08:00",4.49712704830622,"Approved","OW417"
"2023-05-01 09:00",4.49713107326426,"Approved","OW417"
"2023-05-01 10:00",4.49613509822231,"Approved","OW417"
"2023-05-01 11:00",4.49613912318035,"Approved","OW417"
"2023-05-01 12:00",4.4961431481384,"Approved","OW417"
"2023-05-01 13:00",4.49714717309644,"Approved","OW417"
"2023-05-01 14:00",4.49815119805449,"Approved","OW417"
"2023-05-01 15:00",4.49815522301253,"Approved","OW417"
"2023-05-01 16:00",4.49915924797058,"Approved","OW417"
"2023-05-01 17:00",4.49916327292862,"Approved","OW417"
"2023-05-01 18:00",4.49816729788667,"Approved","OW417"
"2023-05-01 19:00",4.49717132284471,"Approved","OW417"
"2023-05-01 20:00",4.49717534780276,"Approved","OW417"
"2023-05-01 21:00",4.4961793727608,"Approved","OW417"
"2023-05-01 22:00",4.49618339771885,"Approved","OW417"
"2023-05-01 23:00",4.49518742267689,"Approved","OW417"
"2023-05-02 00:00",4.49519144763494,"Approved","OW417"
"2023-05-02 01:00",4.49619547259298,"Approved","OW417"
"2023-05-02 02:00",4.49719949755103,"Approved","OW417"
"2023-05-02 03:00",4.49720352250907,"Approved","OW417"
"2023-05-02 04:00",4.49920754746712,"Approved","OW417"
"2023-05-02 05:00",4.50021157242517,"Approved","OW417"
"2023-05-02 06:00",4.50121559738321,"Approved","OW417"
"2023-05-02 07:00",4.50121962234126,"Approved","OW417"
"2023-05-02 08:00",4.5012236472993,"Approved","OW417"
"2023-05-02 09:00",4.50222767225735,"Approved","OW417"
"2023-05-02 10:00",4.50223169721539,"Approved","OW417"
"2023-05-02 11:00",4.50223572217344,"Approved","OW417"
"2023-05-02 12:00",4.50223974713148,"Approved","OW417"
"2023-05-02 13:00",4.50324377208953,"Approved","OW417"
"2023-05-02 14:00",4.50324779704757,"Approved","OW417"
"2023-05-02 15:00",4.50325182200562,"Approved","OW417"
"2023-05-02 16:00",4.50325584696366,"Approved","OW417"
"2023-05-02 17:00",4.50325987192171,"Approved","OW417"
"2023-05-02 18:00",4.50226389687975,"Approved","OW417"
"2023-05-02 19:00",4.5012679218378,"Approved","OW417"
"2023-05-02 20:00",4.50027194679584,"Approved","OW417"
"2023-05-02 21:00",4.49827597175389,"Approved","OW417"
"2023-05-02 22:00",4.49727999671193,"Approved","OW417"
"2023-05-02 23:00",4.49528402166998,"Approved","OW417"
"2023-05-03 00:00",4.49428804662802,"Approved","OW417"
"2023-05-03 01:00",4.49429207158607,"Approved","OW417"
"2023-05-03 02:00",4.49329609654411,"Approved","OW417"
"2023-05-03 03:00",4.49430012150216,"Approved","OW417"
"2023-05-03 04:00",4.4953041464602,"Approved","OW417"
"2023-05-03 05:00",4.49730817141825,"Approved","OW417"
"2023-05-03 06:00",4.49731219637629,"Approved","OW417"
"2023-05-03 07:00",4.49731622133434,"Approved","OW417"
"2023-05-03 08:00",4.49632024629238,"Approved","OW417"
"2023-05-03 09:00",4.49632427125043,"Approved","OW417"
"2023-05-03 10:00",4.49532829620847,"Approved","OW417"
"2023-05-03 11:00",4.49633232116652,"Approved","OW417"
"2023-05-03 12:00",4.49533634612456,"Approved","OW417"
"2023-05-03 13:00",4.49534037108261,"Approved","OW417"
"2023-05-03 14:00",4.49534439604065,"Approved","OW417"
"2023-05-03 15:00",4.4943484209987,"Approved","OW417"
"2023-05-03 16:00",4.49435244595674,"Approved","OW417"
"2023-05-03 17:00",4.49335647091479,"Approved","OW417"
"2023-05-03 18:00",4.49336049587284,"Approved","OW417"
"2023-05-03 19:00",4.49236452083088,"Approved","OW417"
"2023-05-03 20:00",4.49236854578893,"Approved","OW417"
"2023-05-03 21:00",4.49137257074697,"Approved","OW417"
"2023-05-03 22:00",4.49037659570502,"Approved","OW417"
"2023-05-03 23:00",4.48938062066306,"Approved","OW417"
"2023-05-04 00:00",4.48938464562111,"Approved","OW417"
"2023-05-04 01:00",4.48838867057915,"Approved","OW417"
"2023-05-04 02:00",4.4883926955372,"Approved","OW417"
"2023-05-04 03:00",4.48839672049524,"Approved","OW417"
"2023-05-04 04:00",4.49140074545329,"Approved","OW417"
"2023-05-04 05:00",4.49240477041133,"Approved","OW417"
"2023-05-04 06:00",4.49340879536938,"Approved","OW417"
"2023-05-04 07:00",4.49341282032742,"Approved","OW417"
"2023-05-04 08:00",4.49441684528547,"Approved","OW417"
"2023-05-04 09:00",4.49542087024351,"Approved","OW417"
"2023-05-04 10:00",4.49542489520156,"Approved","OW417"
"2023-05-04 11:00",4.4954289201596,"Approved","OW417"
"2023-05-04 12:00",4.49643294511765,"Approved","OW417"
"2023-05-04 13:00",4.49743697007569,"Approved","OW417"
"2023-05-04 14:00",4.49844099503374,"Approved","OW417"
"2023-05-04 15:00",4.49944501999178,"Approved","OW417"
"2023-05-04 16:00",4.49944904494983,"Approved","OW417"
"2023-05-04 17:00",4.50045306990787,"Approved","OW417"
"2023-05-04 18:00",4.50045709486592,"Approved","OW417"
"2023-05-04 19:00",4.50046111982396,"Approved","OW417"
"2023-05-04 20:00",4.49946514478201,"Approved","OW417"
"2023-05-04 21:00",4.49846916974005,"Approved","OW417"
"2023-05-04 22:00",4.4974731946981,"Approved","OW417"
"2023-05-04 23:00",4.49547721965614,"Approved","OW417"
"2023-05-05 00:00",4.49448124461419,"Approved","OW417"
"2023-05-05 01:00",4.49348526957223,"Approved","OW417"
"2023-05-05 02:00",4.49248929453028,"Approved","OW417"
"2023-05-05 03:00",4.49349331948832,"Approved","OW417"
"2023-05-05 04:00",4.49449734444637,"Approved","OW417"
"2023-05-05 05:00",4.49550136940441,"Approved","OW417"
"2023-05-05 06:00",4.49550539436246,"Approved","OW417"
"2023-05-05 07:00",4.4955094193205,"Approved","OW417"
"2023-05-05 08:00",4.49551344427855,"Approved","OW417"
"2023-05-05 09:00",4.49551746923659,"Approved","OW417"
"2023-05-05 10:00",4.49552149419464,"Approved","OW417"
"2023-05-05 11:00",4.49552551915269,"Approved","OW417"
"2023-05-05 12:00",4.49552954411073,"Approved","OW417"
"2023-05-05 13:00",4.49553356906878,"Approved","OW417"
"2023-05-05 14:00",4.49653759402682,"Approved","OW417"
"2023-05-05 15:00",4.49654161898487,"Approved","OW417"
"2023-05-05 16:00",4.49754564394291,"Approved","OW417"
"2023-05-05 17:00",4.49754966890096,"Approved","OW417"
"2023-05-05 18:00",4.497553693859,"Approved","OW417"
"2023-05-05 19:00",4.49655771881705,"Approved","OW417"
"2023-05-05 20:00",4.49556174377509,"Approved","OW417"
"2023-05-05 21:00",4.49456576873314,"Approved","OW417"
"2023-05-05 22:00",4.49256979369118,"Approved","OW417"
"2023-05-05 23:00",4.48957381864923,"Approved","OW417"
"2023-05-06 00:00",4.48957784360727,"Approved","OW417"
"2023-05-06 01:00",4.48958186856532,"Approved","OW417"
"2023-05-06 02:00",4.48958589352336,"Approved","OW417"
"2023-05-06 03:00",4.49058991848141,"Approved","OW417"
"2023-05-06 04:00",4.49059394343945,"Approved","OW417"
"2023-05-06 05:00",4.4915979683975,"Approved","OW417"
"2023-05-06 06:00",4.49260199335554,"Approved","OW417"
"2023-05-06 07:00",4.49360601831359,"Approved","OW417"
"2023-05-06 08:00",4.49461004327163,"Approved","OW417"
"2023-05-06 09:00",4.49461406822968,"Approved","OW417"
"2023-05-06 10:00",4.49561809318772,"Approved","OW417"
"2023-05-06 11:00",4.49562211814577,"Approved","OW417"
"2023-05-06 12:00",4.49662614310381,"Approved","OW417"
"2023-05-06 13:00",4.49663016806186,"Approved","OW417"
"2023-05-06 14:00",4.4976341930199,"Approved","OW417"
"2023-05-06 15:00",4.49863821797795,"Approved","OW417"
"2023-05-06 16:00",4.49964224293599,"Approved","OW417"
"2023-05-06 17:00",4.50064626789404,"Approved","OW417"
"2023-05-06 18:00",4.50065029285208,"Approved","OW417"
"2023-05-06 19:00",4.50065431781013,"Approved","OW417"
"2023-05-06 20:00",4.49965834276817,"Approved","OW417"
"2023-05-06 21:00",4.49966236772622,"Approved","OW417"
"2023-05-06 22:00",4.49866639268427,"Approved","OW417"
"2023-05-06 23:00",4.49767041764231,"Approved","OW417"
"2023-05-07 00:00",4.49667444260036,"Approved","OW417"
"2023-05-07 01:00",4.4956784675584,"Approved","OW417"
"2023-05-07 02:00",4.49568249251645,"Approved","OW417"
"2023-05-07 03:00",4.49568651747449,"Approved","OW417"
"2023-05-07 04:00",4.49669054243254,"Approved","OW417"
"2023-05-07 05:00",4.49669456739058,"Approved","OW417"
"2023-05-07 06:00",4.49669859234863,"Approved","OW417"
"2023-05-07 07:00",4.49770261730667,"Approved","OW417"
"2023-05-07 08:00",4.49770664226472,"Approved","OW417"
"2023-05-07 09:00",4.49871066722276,"Approved","OW417"
"2023-05-07 10:00",4.49871469218081,"Approved","OW417"
"2023-05-07 11:00",4.49971871713885,"Approved","OW417"
"2023-05-07 12:00",4.4987227420969,"Approved","OW417"
"2023-05-07 13:00",4.49972676705494,"Approved","OW417"
"2023-05-07 14:00",4.49973079201299,"Approved","OW417"
"2023-05-07 15:00",4.50073481697103,"Approved","OW417"
"2023-05-07 16:00",4.50173884192908,"Approved","OW417"
"2023-05-07 17:00",4.50174286688712,"Approved","OW417"
"2023-05-07 18:00",4.50274689184517,"Approved","OW417"
"2023-05-07 19:00",4.50275091680321,"Approved","OW417"
"2023-05-07 20:00",4.50275494176126,"Approved","OW417"
"2023-05-07 21:00",4.5027589667193,"Approved","OW417"
"2023-05-07 22:00",4.50476299167735,"Approved","OW417"
"2023-05-07 23:00",4.50376701663539,"Approved","OW417"
"2023-05-08 00:00",4.50177104159344,"Approved","OW417"
"2023-05-08 01:00",4.50077506655148,"Approved","OW417"
"2023-05-08 02:00",4.49977909150953,"Approved","OW417"
"2023-05-08 03:00",4.49978311646757,"Approved","OW417"
"2023-05-08 04:00",4.49878714142562,"Approved","OW417"
"2023-05-08 05:00",4.49979116638366,"Approved","OW417"
"2023-05-08 06:00",4.49979519134171,"Approved","OW417"
"2023-05-08 07:00",4.49979921629975,"Approved","OW417"
"2023-05-08 08:00",4.4998032412578,"Approved","OW417"
"2023-05-08 09:00",4.50080726621584,"Approved","OW417"
"2023-05-08 10:00",4.50081129117389,"Approved","OW417"
"2023-05-08 11:00",4.50081531613194,"Approved","OW417"
"2023-05-08 12:00",4.50181934108998,"Approved","OW417"
"2023-05-08 13:00",4.50182336604803,"Approved","OW417"
"2023-05-08 14:00",4.50282739100607,"Approved","OW417"
"2023-05-08 15:00",4.50383141596412,"Approved","OW417"
"2023-05-08 16:00",4.50383544092216,"Approved","OW417"
"2023-05-08 17:00",4.50483946588021,"Approved","OW417"
"2023-05-08 18:00",4.50484349083825,"Approved","OW417"
"2023-05-08 19:00",4.5068475157963,"Approved","OW417"
"2023-05-08 20:00",4.50785154075434,"Approved","OW417"
"2023-05-08 21:00",4.50685556571239,"Approved","OW417"
"2023-05-08 22:00",4.50785959067043,"Approved","OW417"
"2023-05-08 23:00",4.50686361562848,"Approved","OW417"
"2023-05-09 00:00",4.50586764058652,"Approved","OW417"
"2023-05-09 01:00",4.50587166554457,"Approved","OW417"
"2023-05-09 02:00",4.50487569050261,"Approved","OW417"
"2023-05-09 03:00",4.50387971546066,"Approved","OW417"
"2023-05-09 04:00",4.5038837404187,"Approved","OW417"
"2023-05-09 05:00",4.50388776537675,"Approved","OW417"
"2023-05-09 06:00",4.50489179033479,"Approved","OW417"
"2023-05-09 07:00",4.50489581529284,"Approved","OW417"
"2023-05-09 08:00",4.50589984025088,"Approved","OW417"
"2023-05-09 09:00",4.50590386520893,"Approved","OW417"
"2023-05-09 10:00",4.50590789016697,"Approved","OW417"
"2023-05-09 11:00",4.50691191512502,"Approved","OW417"
"2023-05-09 12:00",4.50691594008306,"Approved","OW417"
"2023-05-09 13:00",4.50791996504111,"Approved","OW417"
"2023-05-09 14:00",4.50792398999915,"Approved","OW417"
"2023-05-09 15:00",4.5079280149572,"Approved","OW417"
"2023-05-09 16:00",4.50893203991524,"Approved","OW417"
"2023-05-09 17:00",4.50993606487329,"Approved","OW417"
"2023-05-09 18:00",4.50994008983133,"Approved","OW417"
"2023-05-09 19:00",4.50994411478938,"Approved","OW417"
"2023-05-09 20:00",4.51094813974742,"Approved","OW417"
"2023-05-09 21:00",4.51095216470547,"Approved","OW417"
"2023-05-09 22:00",4.51095618966351,"Approved","OW417"
"2023-05-09 23:00",4.51096021462156,"Approved","OW417"
"2023-05-10 00:00",4.5109642395796,"Approved","OW417"
"2023-05-10 01:00",4.50996826453765,"Approved","OW417"
"2023-05-10 02:00",4.50897228949569,"Approved","OW417"
"2023-05-10 03:00",4.50897631445374,"Approved","OW417"
"2023-05-10 04:00",4.50898033941179,"Approved","OW417"
"2023-05-10 05:00",4.50898436436983,"Approved","OW417"
"2023-05-10 06:00",4.50898838932788,"Approved","OW417"
"2023-05-10 07:00",4.50899241428592,"Approved","OW417"
"2023-05-10 08:00",4.50999643924397,"Approved","OW417"
"2023-05-10 09:00",4.51000046420201,"Approved","OW417"
"2023-05-10 10:00",4.51000448916006,"Approved","OW417"
"2023-05-10 11:00",4.5110085141181,"Approved","OW417"
"2023-05-10 12:00",4.51101253907615,"Approved","OW417"
"2023-05-10 13:00",4.51101656403419,"Approved","OW417"
"2023-05-10 14:00",4.51202058899224,"Approved","OW417"
"2023-05-10 15:00",4.51202461395028,"Approved","OW417"
"2023-05-10 16:00",4.51102863890833,"Approved","OW417"
"2023-05-10 17:00",4.51103266386637,"Approved","OW417"